�������l�o���
Date,Time,MP-1(��Sv/h),MP-2(��Sv/h),MP-3(��Sv/h),MP-4(��Sv/h),MP-5(��Sv/h),MP-6(��Sv/h),MP-7(��Sv/h),MP-8(��Sv/h),����,����(m/s),���J
2018/04/15,00:00,0.860,1.422,0.898,1.668,1.129,0.486,0.851,0.813,��,13.3,�L
2018/04/15,00:10,0.860,1.418,0.898,1.665,1.132,0.486,0.850,0.813,��,11.3,�L
2018/04/15,00:20,0.856,1.417,0.894,1.665,1.129,0.485,0.851,0.811,��,11.7,�L
2018/04/15,00:30,0.855,1.412,0.894,1.661,1.130,0.485,0.850,0.811,��,11.8,�L
2018/04/15,00:40,0.854,1.415,0.892,1.656,1.124,0.487,0.849,0.810,��,13.3,�L
2018/04/15,00:50,0.856,1.411,0.894,1.656,1.121,0.487,0.848,0.812,��,13.8,�L
2018/04/15,01:00,0.854,1.412,0.892,1.652,1.122,0.485,0.849,0.811,��,13.9,�L
2018/04/15,01:10,0.855,1.411,0.891,1.656,1.123,0.486,0.849,0.810,��,12.2,�L
2018/04/15,01:20,0.857,1.412,0.891,1.652,1.121,0.487,0.847,0.810,��,11.4,�L
2018/04/15,01:30,0.854,1.414,0.892,1.651,1.123,0.486,0.849,0.810,��,8.5,�L
2018/04/15,01:40,0.855,1.413,0.891,1.651,1.121,0.487,0.848,0.812,��,7.4,�L
2018/04/15,01:50,0.856,1.411,0.892,1.649,1.122,0.485,0.848,0.810,��,8.0,�L
2018/04/15,02:00,0.856,1.410,0.893,1.649,1.125,0.489,0.851,0.811,��,9.5,�L
2018/04/15,02:10,0.855,1.411,0.893,1.649,1.123,0.488,0.849,0.811,��,8.9,�L
2018/04/15,02:20,0.855,1.412,0.892,1.651,1.124,0.490,0.847,0.810,��,7.8,�L
2018/04/15,02:30,0.855,1.416,0.892,1.650,1.124,0.489,0.848,0.812,��쓌,10.0,�L
2018/04/15,02:40,0.855,1.412,0.895,1.646,1.122,0.489,0.851,0.812,��쓌,10.3,�L
2018/04/15,02:50,0.855,1.409,0.893,1.645,1.122,0.488,0.849,0.811,��,9.5,�L
2018/04/15,03:00,0.854,1.412,0.893,1.647,1.124,0.491,0.849,0.812,��,11.4,�L
2018/04/15,03:10,0.856,1.411,0.892,1.647,1.123,0.489,0.850,0.811,��,10.5,�L
2018/04/15,03:20,0.854,1.412,0.891,1.646,1.121,0.488,0.851,0.812,��,10.2,�L
2018/04/15,03:30,0.855,1.410,0.892,1.647,1.122,0.488,0.848,0.812,��,9.7,�L
2018/04/15,03:40,0.855,1.412,0.890,1.645,1.124,0.487,0.850,0.813,��,9.7,��
2018/04/15,03:50,0.853,1.413,0.888,1.645,1.122,0.485,0.847,0.812,��,8.8,��
2018/04/15,04:00,0.853,1.411,0.890,1.646,1.120,0.487,0.849,0.814,��,9.1,��
2018/04/15,04:10,0.852,1.410,0.889,1.644,1.122,0.485,0.849,0.812,��,9.5,��
2018/04/15,04:20,0.852,1.414,0.889,1.644,1.122,0.486,0.850,0.815,��,9.2,��
2018/04/15,04:30,0.852,1.412,0.887,1.646,1.120,0.486,0.850,0.814,��,9.3,��
2018/04/15,04:40,0.851,1.414,0.887,1.644,1.120,0.486,0.850,0.814,��,9.0,��
2018/04/15,04:50,0.849,1.412,0.887,1.645,1.123,0.485,0.849,0.814,��,9.0,��
2018/04/15,05:00,0.851,1.413,0.888,1.646,1.119,0.484,0.849,0.812,��,11.7,��
2018/04/15,05:10,0.852,1.416,0.886,1.646,1.122,0.485,0.851,0.813,��,10.5,��
2018/04/15,05:20,0.851,1.415,0.890,1.645,1.119,0.487,0.852,0.814,��,11.3,�L
2018/04/15,05:30,0.852,1.415,0.888,1.645,1.122,0.485,0.850,0.813,��,14.4,�L
2018/04/15,05:40,0.853,1.413,0.888,1.646,1.123,0.485,0.850,0.814,��,14.1,�L
2018/04/15,05:50,0.852,1.416,0.890,1.648,1.124,0.486,0.850,0.813,��,12.2,�L
2018/04/15,06:00,0.852,1.413,0.888,1.647,1.123,0.486,0.851,0.813,��,13.6,�L
2018/04/15,06:10,0.853,1.413,0.889,1.645,1.122,0.486,0.850,0.813,��,12.4,�L
2018/04/15,06:20,0.855,1.412,0.890,1.645,1.121,0.487,0.850,0.812,��,10.8,�L
2018/04/15,06:30,0.855,1.413,0.890,1.647,1.120,0.487,0.849,0.812,��,10.5,�L
2018/04/15,06:40,0.853,1.413,0.889,1.644,1.120,0.487,0.850,0.812,��,10.5,�L
2018/04/15,06:50,0.852,1.412,0.888,1.644,1.122,0.485,0.850,0.812,��,10.3,�L
2018/04/15,07:00,0.854,1.410,0.889,1.645,1.123,0.487,0.850,0.812,��,10.6,�L
2018/04/15,07:10,0.854,1.412,0.888,1.646,1.120,0.486,0.850,0.812,��,9.6,��
2018/04/15,07:20,0.855,1.411,0.890,1.645,1.121,0.486,0.850,0.813,��,8.4,��
2018/04/15,07:30,0.856,1.412,0.889,1.646,1.120,0.485,0.847,0.813,��,9.2,�L
2018/04/15,07:40,0.854,1.411,0.888,1.646,1.122,0.485,0.849,0.812,��,8.4,�L
2018/04/15,07:50,0.851,1.412,0.888,1.645,1.121,0.483,0.849,0.815,��,8.3,�L
2018/04/15,08:00,0.853,1.412,0.888,1.644,1.120,0.485,0.851,0.813,��,7.5,�L
2018/04/15,08:10,0.853,1.410,0.890,1.647,1.121,0.487,0.850,0.812,��,7.0,�L
2018/04/15,08:20,0.852,1.410,0.889,1.647,1.125,0.486,0.850,0.813,��,7.2,�L
2018/04/15,08:30,0.853,1.413,0.888,1.647,1.123,0.484,0.851,0.814,��,5.6,�L
2018/04/15,08:40,0.855,1.414,0.889,1.647,1.122,0.485,0.850,0.814,��쐼,4.3,�L
2018/04/15,08:50,0.854,1.412,0.889,1.645,1.123,0.486,0.850,0.813,��쐼,2.8,�L
2018/04/15,09:00,0.853,1.414,0.889,1.647,1.125,0.488,0.852,0.812,�쐼,2.0,�L
2018/04/15,09:10,0.852,1.415,0.889,1.650,1.127,0.486,0.850,0.814,�쐼,5.2,�L
2018/04/15,09:20,0.855,1.414,0.889,1.649,1.124,0.487,0.851,0.814,���쐼,4.8,��
2018/04/15,09:30,0.852,1.414,0.889,1.648,1.123,0.486,0.852,0.812,��,5.3,�L
2018/04/15,09:40,0.854,1.414,0.888,1.646,1.124,0.485,0.851,0.812,���k��,6.4,�L
2018/04/15,09:50,0.851,1.412,0.891,1.647,1.127,0.484,0.850,0.813,��,5.2,��
2018/04/15,10:00,0.854,1.414,0.891,1.650,1.126,0.485,0.853,0.814,��,4.5,��
2018/04/15,10:10,0.851,1.417,0.890,1.648,1.122,0.486,0.849,0.811,���k��,5.4,��
2018/04/15,10:20,0.853,1.414,0.891,1.648,1.126,0.485,0.854,0.810,��,4.6,��
2018/04/15,10:30,0.853,1.417,0.891,1.650,1.128,0.485,0.851,0.812,���k��,7.7,��
2018/04/15,10:40,0.853,1.415,0.890,1.650,1.127,0.485,0.851,0.814,���k��,8.4,��
2018/04/15,10:50,0.854,1.418,0.890,1.649,1.127,0.484,0.852,0.813,���k��,7.6,��
2018/04/15,11:00,0.852,1.416,0.891,1.654,1.124,0.485,0.850,0.813,���k��,9.3,��
2018/04/15,11:10,0.852,1.417,0.890,1.652,1.126,0.486,0.852,0.814,���k��,10.9,��
2018/04/15,11:20,0.852,1.413,0.889,1.651,1.126,0.483,0.852,0.814,���k��,11.3,��
2018/04/15,11:30,0.852,1.415,0.889,1.652,1.126,0.485,0.852,0.813,���k��,10.2,��
2018/04/15,11:40,0.852,1.415,0.888,1.652,1.126,0.483,0.853,0.813,���k��,9.2,��
2018/04/15,11:50,0.852,1.412,0.889,1.652,1.125,0.483,0.854,0.813,���k��,7.9,��
2018/04/15,12:00,0.853,1.416,0.889,1.651,1.127,0.483,0.855,0.815,���k��,8.8,��
2018/04/15,12:10,0.854,1.416,0.889,1.654,1.127,0.484,0.852,0.814,���k��,8.2,��
2018/04/15,12:20,0.855,1.416,0.889,1.653,1.126,0.484,0.853,0.815,���k��,6.9,��
2018/04/15,12:30,0.854,1.417,0.890,1.657,1.129,0.485,0.854,0.813,���k��,5.2,��
2018/04/15,12:40,0.852,1.417,0.891,1.657,1.130,0.485,0.854,0.813,���k��,6.3,��
2018/04/15,12:50,0.854,1.419,0.889,1.659,1.128,0.485,0.853,0.815,�k��,8.4,��
2018/04/15,13:00,0.852,1.416,0.893,1.658,1.128,0.484,0.852,0.815,�k��,6.3,��
2018/04/15,13:10,0.852,1.418,0.891,1.659,1.129,0.485,0.852,0.814,�k��,2.9,��
2018/04/15,13:20,0.853,1.415,0.891,1.658,1.129,0.484,0.856,0.814,�k��,5.7,��
2018/04/15,13:30,0.852,1.419,0.891,1.658,1.131,0.485,0.853,0.814,���k��,4.4,��
2018/04/15,13:40,0.853,1.418,0.890,1.660,1.127,0.485,0.854,0.816,�k��,4.6,��
2018/04/15,13:50,0.854,1.418,0.893,1.661,1.129,0.483,0.854,0.814,�k��,5.2,��
2018/04/15,14:00,0.854,1.420,0.892,1.662,1.131,0.482,0.853,0.815,�k��,6.0,��
2018/04/15,14:10,0.856,1.419,0.891,1.660,1.130,0.482,0.854,0.812,���k��,3.9,��
2018/04/15,14:20,0.854,1.419,0.893,1.661,1.130,0.483,0.852,0.812,�k��,6.9,��
2018/04/15,14:30,0.853,1.421,0.893,1.663,1.132,0.482,0.853,0.814,�k��,6.6,�L
2018/04/15,14:40,0.855,1.422,0.891,1.661,1.132,0.484,0.854,0.815,���k��,6.9,��
2018/04/15,14:50,0.855,1.423,0.893,1.662,1.132,0.485,0.852,0.815,���k��,10.3,��
2018/04/15,15:00,0.854,1.422,0.891,1.662,1.132,0.484,0.854,0.814,�k��,9.3,��
2018/04/15,15:10,0.857,1.426,0.894,1.663,1.136,0.484,0.854,0.814,�k��,8.9,��
2018/04/15,15:20,0.854,1.427,0.895,1.666,1.136,0.484,0.852,0.817,���k��,9.3,��
2018/04/15,15:30,0.856,1.423,0.894,1.663,1.135,0.483,0.855,0.816,���k��,7.9,��
2018/04/15,15:40,0.856,1.424,0.894,1.664,1.137,0.482,0.854,0.814,�k��,6.4,��
2018/04/15,15:50,0.858,1.422,0.895,1.667,1.135,0.483,0.853,0.816,���k��,9.2,��
2018/04/15,16:00,0.856,1.422,0.896,1.667,1.137,0.482,0.853,0.813,���k��,10.0,��
2018/04/15,16:10,0.857,1.426,0.894,1.666,1.138,0.484,0.855,0.816,���k��,13.1,��
2018/04/15,16:20,0.857,1.423,0.895,1.668,1.137,0.483,0.854,0.814,���k��,13.3,��
2018/04/15,16:30,0.859,1.424,0.894,1.670,1.136,0.485,0.853,0.816,���k��,10.6,��
2018/04/15,16:40,0.856,1.425,0.894,1.669,1.138,0.481,0.854,0.815,���k��,9.6,��
2018/04/15,16:50,0.857,1.422,0.895,1.667,1.136,0.484,0.854,0.815,���k��,13.3,��
2018/04/15,17:00,0.855,1.426,0.896,1.671,1.136,0.483,0.854,0.815,���k��,11.8,��
2018/04/15,17:10,0.855,1.426,0.893,1.671,1.137,0.483,0.853,0.816,�k��,9.3,��
2018/04/15,17:20,0.857,1.426,0.895,1.670,1.138,0.484,0.854,0.816,���k��,8.1,��
2018/04/15,17:30,0.856,1.427,0.896,1.669,1.138,0.483,0.853,0.816,�k��,8.7,��
2018/04/15,17:40,0.856,1.429,0.895,1.668,1.135,0.483,0.854,0.816,�k��,7.4,��
2018/04/15,17:50,0.856,1.427,0.893,1.672,1.137,0.485,0.854,0.815,�k��,11.3,��
2018/04/15,18:00,0.856,1.430,0.895,1.671,1.134,0.484,0.852,0.815,�k��,9.0,��
2018/04/15,18:10,0.858,1.431,0.893,1.669,1.136,0.487,0.853,0.815,���k��,10.7,��
2018/04/15,18:20,0.859,1.430,0.896,1.673,1.137,0.484,0.853,0.816,�k��,9.2,��
2018/04/15,18:30,0.858,1.432,0.897,1.672,1.139,0.483,0.852,0.818,���k��,11.4,��
2018/04/15,18:40,0.858,1.429,0.898,1.675,1.142,0.484,0.851,0.819,���k��,12.7,��
2018/04/15,18:50,0.856,1.428,0.896,1.673,1.138,0.484,0.854,0.817,���k��,13.1,��
2018/04/15,19:00,0.857,1.430,0.898,1.673,1.142,0.484,0.852,0.817,�k��,12.7,��
2018/04/15,19:10,0.859,1.429,0.898,1.673,1.141,0.485,0.853,0.818,�k��,10.7,��
2018/04/15,19:20,0.858,1.429,0.897,1.675,1.140,0.484,0.853,0.817,�k��,12.4,��
2018/04/15,19:30,0.860,1.431,0.897,1.675,1.142,0.483,0.851,0.816,�k��,13.8,��
2018/04/15,19:40,0.858,1.430,0.898,1.674,1.140,0.484,0.850,0.819,�k��,12.0,��
2018/04/15,19:50,0.858,1.428,0.900,1.679,1.140,0.483,0.851,0.820,�k��,10.6,��
2018/04/15,20:00,0.857,1.429,0.900,1.675,1.141,0.484,0.852,0.817,�k��,12.4,��
2018/04/15,20:10,0.859,1.431,0.897,1.676,1.141,0.484,0.853,0.815,�k��,13.0,��
2018/04/15,20:20,0.858,1.428,0.900,1.674,1.142,0.482,0.853,0.818,���k��,14.9,��
2018/04/15,20:30,0.859,1.429,0.898,1.677,1.142,0.482,0.852,0.819,���k��,16.1,��
2018/04/15,20:40,0.858,1.429,0.899,1.677,1.142,0.483,0.854,0.819,���k��,15.2,��
2018/04/15,20:50,0.858,1.431,0.899,1.679,1.142,0.483,0.853,0.818,���k��,15.2,��
2018/04/15,21:00,0.860,1.430,0.900,1.674,1.141,0.484,0.853,0.819,���k��,12.5,��
2018/04/15,21:10,0.859,1.431,0.898,1.679,1.140,0.484,0.851,0.820,���k��,13.0,��
2018/04/15,21:20,0.857,1.431,0.897,1.676,1.141,0.483,0.851,0.819,���k��,8.3,��
2018/04/15,21:30,0.860,1.430,0.899,1.678,1.140,0.484,0.851,0.819,�k��,3.5,��
2018/04/15,21:40,0.858,1.430,0.897,1.677,1.140,0.483,0.853,0.817,�k��,8.2,��
2018/04/15,21:50,0.856,1.430,0.897,1.677,1.143,0.483,0.854,0.817,�k�k��,4.8,��
2018/04/15,22:00,0.856,1.429,0.898,1.678,1.140,0.481,0.853,0.816,�k,3.0,��
2018/04/15,22:10,0.857,1.430,0.896,1.676,1.141,0.483,0.853,0.816,�k�k��,2.8,��
2018/04/15,22:20,0.858,1.433,0.895,1.677,1.140,0.483,0.851,0.817,�k�k��,4.7,��
2018/04/15,22:30,0.857,1.429,0.899,1.676,1.140,0.482,0.853,0.818,�k��,5.8,��
2018/04/15,22:40,0.857,1.427,0.897,1.677,1.140,0.481,0.853,0.818,�k��,7.1,��
2018/04/15,22:50,0.854,1.431,0.896,1.676,1.140,0.483,0.854,0.818,�k��,7.5,��
2018/04/15,23:00,0.858,1.428,0.898,1.676,1.141,0.482,0.854,0.816,�k��,7.0,��
2018/04/15,23:10,0.855,1.431,0.898,1.675,1.139,0.482,0.854,0.816,�k��,6.4,��
2018/04/15,23:20,0.856,1.430,0.897,1.678,1.139,0.482,0.854,0.816,�k��,7.6,��
2018/04/15,23:30,0.857,1.431,0.898,1.675,1.140,0.482,0.855,0.818,�k��,7.5,��
2018/04/15,23:40,0.857,1.431,0.896,1.678,1.140,0.482,0.855,0.816,�k��,6.9,��
2018/04/15,23:50,0.857,1.429,0.898,1.675,1.139,0.481,0.853,0.817,�k��,6.4,��
